Snowfall_Accumulation
0.0 0.0 0.0 0.0 0.0 0.0 0.0 0.0 0.0 0.0 0.0 0.0 0.0 0.0 0.0 0.0 0.0 0.0 0.0 0.0 0.0 0.0 0.0 0.0 0.0 0.0 0.0 0.0 0.0 0.0 0.0 0.0 0.0 0.0 0.0 0.0 0.0 0.0 0.0 0.0 0.0 0.0 0.0 0.0
0.0 0.0 0.0 0.0 0.0 0.0 0.0 0.0 0.0 0.0 0.0 0.0 0.0 0.0 0.0 0.0 0.0 0.0 0.0 0.0 0.0 0.0 0.0 0.0 0.0 0.0 0.0 0.0 0.0 0.0 0.0 0.0 0.0 0.0 0.0 0.0 0.0 0.0 0.0 0.0 0.0 0.0 0.0 0.0
0.0 0.0 0.0 0.0 0.0 0.0 0.0 0.0 0.0 0.0 0.0 0.0 0.0 0.0 0.0 0.0 0.0 0.0 0.0 0.0 0.0 0.0 0.0 0.0 0.0 0.0 0.0 0.0 0.0 0.0 0.0 0.0 0.0 0.0 0.0 0.0 0.0 0.0 0.0 0.0 0.0 0.0 0.0 0.0
0.0 0.0 0.0 0.0 0.0 0.0 0.0 0.0 0.0 0.0 0.0 0.0 0.0 0.0 0.0 0.0 0.0 0.0 0.0 0.0 0.0 0.0 0.0 0.0 0.0 0.0 0.0 0.0 0.0 0.0 0.0 0.0 0.0 0.0 0.0 0.0 0.0 0.0 0.0 0.0 0.0 0.0 0.0 0.0
0.0 0.0 0.0 0.0 0.0 0.0 0.0 0.0 0.0 0.0 0.0 0.0 0.0 0.0 0.0 0.0 0.0 0.0 0.0 0.0 0.0 0.0 0.0 0.0 0.0 0.0 0.0 0.0 0.0 0.0 0.0 0.0 0.0 0.0 0.0 0.0 0.0 0.0 0.0 0.0 0.0 0.0 0.0 0.0
0.0 0.0 0.0 0.0 0.0 0.0 0.0 0.0 0.0 0.0 0.0 0.3 0.0 0.0 0.0 0.0 0.0 0.0 0.0 0.0 0.0 0.0 0.0 0.0 0.0 0.0 0.0 0.0 0.0 0.0 0.0 0.0 0.0 0.0 0.0 0.0 0.0 0.0 0.0 0.0 0.0 0.0 0.0 0.0
0.0 0.0 0.0 0.0 0.0 0.0 0.0 0.0 0.4 0.7 2.0 1.0 0.0 0.2 0.0 0.0 0.0 0.0 0.0 0.0 0.0 0.0 0.0 0.0 0.0 0.0 0.0 0.0 0.0 0.0 0.0 0.0 0.0 0.0 0.0 0.0 0.0 0.0 0.0 0.0 0.0 0.0 0.0 0.0
0.0 0.0 0.0 0.0 0.0 0.0 0.0 0.0 0.8 3.2 1.7 0.7 0.3 0.3 0.0 0.0 0.0 0.0 0.0 0.0 0.0 0.0 0.0 0.0 0.0 0.0 0.0 0.0 0.0 0.0 0.0 0.0 0.0 0.0 0.0 0.0 0.0 0.0 0.0 0.0 0.0 0.0 0.0 0.0
0.0 0.0 0.0 0.0 0.0 0.0 0.0 0.0 0.0 0.4 3.3 2.6 0.0 0.0 0.0 0.0 0.0 0.0 0.0 0.0 0.0 0.0 0.0 0.0 0.0 0.0 0.0 0.0 0.0 0.0 0.0 0.0 0.0 0.0 0.0 0.0 0.0 0.0 0.0 0.0 0.0 0.0 0.0 0.0
0.0 0.1 0.0 0.0 0.0 0.0 0.0 0.0 0.3 0.4 5.8 4.5 0.0 0.0 0.0 0.0 0.0 0.0 0.0 0.0 0.0 0.0 0.0 0.0 0.0 0.0 0.0 0.0 0.0 0.0 0.0 0.0 0.0 0.0 0.0 0.0 0.0 0.0 0.0 0.0 0.0 0.0 0.0 0.0
0.0 0.1 0.0 0.0 0.0 0.0 0.0 0.0 0.0 0.0 0.5 4.4 2.8 0.1 0.0 0.0 0.0 0.0 0.0 0.0 0.0 0.0 0.0 0.0 0.0 0.0 0.0 0.0 0.0 0.0 0.0 0.0 0.0 0.0 0.0 0.0 0.0 0.0 0.0 0.0 0.0 0.0 0.0 0.0
0.0 0.0 2.5 0.0 0.0 0.0 0.0 0.0 0.0 1.1 0.7 0.7 1.3 2.3 0.0 0.0 0.0 0.0 0.0 0.0 0.0 0.0 0.0 0.0 0.0 0.0 0.0 0.0 0.0 0.0 0.0 0.0 0.0 0.0 0.0 0.0 0.0 0.0 0.0 0.0 0.0 0.0 0.0 0.0
0.0 0.8 6.8 1.9 0.0 0.0 0.0 0.0 0.0 0.0 0.8 4.8 8.2 2.4 0.0 0.0 0.0 0.0 0.0 0.0 0.0 0.0 0.0 0.0 0.0 0.0 0.0 0.0 0.0 0.0 0.0 0.0 0.0 0.0 0.0 0.0 0.0 0.0 0.0 0.0 0.0 0.0 0.0 0.0
nan 0.4 1.2 2.3 0.2 0.0 0.4 0.1 0.1 0.5 6.4 2.6 2.3 0.8 0.0 0.0 0.0 0.0 0.0 0.0 0.0 0.0 0.0 0.0 0.0 0.0 0.0 0.0 0.0 0.0 0.0 0.0 0.0 0.0 0.0 0.0 0.0 0.0 0.0 0.0 0.0 0.0 0.0 0.0
0.0 3.5 0.1 0.1 0.0 0.1 0.3 0.3 0.0 0.0 0.1 1.9 0.2 0.3 0.0 0.0 0.1 0.0 0.0 0.0 0.0 0.0 0.0 0.0 0.0 0.0 0.0 0.0 0.0 0.0 0.0 0.0 0.0 0.0 0.0 0.0 0.0 0.0 0.1 0.3 0.4 0.4 0.3 0.0
0.1 4.6 0.7 3.6 0.1 0.1 0.5 0.1 0.1 0.1 0.1 0.1 0.0 0.0 0.0 0.0 0.0 0.0 0.0 0.0 0.0 0.0 0.0 0.0 0.0 0.0 0.0 0.0 0.0 0.0 0.0 0.0 0.0 0.0 0.0 0.0 0.7 1.1 1.3 1.1 0.8 0.5 0.4 0.4
0.4 2.5 8.6 14.0 0.6 0.6 7.0 0.9 0.0 0.0 0.0 0.0 0.3 0.5 0.8 0.4 0.1 0.2 0.1 0.1 0.0 0.0 0.0 0.0 0.0 0.0 0.0 0.0 0.0 0.0 0.0 0.2 1.1 1.7 2.5 2.2 1.7 1.8 1.4 1.0 0.8 0.6 0.6 0.6
0.7 3.9 7.4 17.8 9.3 24.1 2.0 0.0 0.0 0.1 0.4 0.7 1.1 1.9 0.9 0.3 0.0 0.0 0.0 0.0 0.0 0.0 0.0 0.0 0.0 0.0 0.0 0.0 0.0 0.0 0.3 0.7 1.0 2.0 3.1 2.3 1.4 2.6 1.4 1.2 1.2 0.7 0.6 0.7
0.0 0.0 10.2 19.0 17.8 0.9 0.1 0.0 0.0 0.1 0.2 0.5 1.0 0.5 0.1 0.0 0.0 0.0 0.0 0.0 0.0 0.0 0.0 0.0 0.0 0.0 0.0 0.0 0.0 0.4 0.5 0.5 0.6 0.7 1.2 1.3 2.0 3.0 1.6 3.5 1.6 1.2 2.0 1.3
0.0 0.0 0.5 12.2 20.0 15.3 0.2 0.0 0.0 0.0 2.4 1.6 3.0 1.9 1.0 0.2 0.6 0.1 0.0 0.0 0.0 0.0 0.0 0.0 0.0 0.0 0.0 0.0 0.0 0.6 0.6 1.0 0.9 0.7 0.7 0.9 1.9 4.3 3.4 1.9 2.9 3.3 3.1 2.9
5.8 10.2 12.9 13.8 18.0 5.9 0.9 0.5 0.0 6.6 5.3 1.6 1.2 1.2 0.8 0.9 0.3 0.1 0.0 0.0 0.0 0.0 0.1 0.0 0.0 0.0 0.0 0.3 0.7 0.7 0.7 1.0 1.2 1.4 1.5 1.7 2.0 4.5 2.8 3.3 2.7 3.9 4.4 2.3
1.3 8.7 19.3 13.0 13.3 15.8 0.1 0.1 1.2 1.2 0.3 0.6 0.2 0.0 0.1 0.0 0.0 0.0 0.0 0.0 0.0 0.0 0.0 0.0 0.0 0.0 0.0 0.8 1.2 1.1 0.8 1.1 1.7 2.2 2.4 3.0 5.0 4.6 4.6 8.3 5.1 7.0 6.1 5.9
5.0 1.6 8.6 3.6 4.6 0.1 0.0 0.3 0.1 0.1 1.0 0.4 0.2 0.1 0.0 0.1 0.0 0.0 0.0 0.0 0.0 0.0 0.0 0.0 1.5 1.4 0.0 1.8 2.0 2.6 1.7 2.0 2.7 5.2 7.3 7.2 6.4 6.4 6.4 9.3 6.0 8.4 7.0 8.3
0.4 0.0 1.5 2.2 0.0 0.0 0.0 0.0 0.0 0.0 0.1 0.1 0.1 0.1 0.1 0.1 0.0 0.0 0.0 0.1 0.0 0.9 1.4 1.6 2.3 2.7 2.5 2.3 2.8 3.3 2.9 3.1 10.0 10.0 5.4 4.4 5.6 4.2 5.6 7.6 8.6 12.2 9.5 7.6
0.4 0.3 0.9 1.3 0.0 0.0 0.0 0.0 0.0 0.0 0.0 0.0 0.0 0.0 0.0 0.0 0.0 0.0 0.8 1.1 0.7 1.2 1.4 2.0 2.6 2.6 2.4 2.0 2.5 3.7 3.7 4.6 6.8 7.1 4.0 5.6 7.8 8.7 5.3 4.9 8.1 6.8 4.4 9.6
0.0 0.0 0.2 2.1 0.0 0.0 0.0 0.0 0.0 0.0 0.0 0.2 0.2 0.4 0.4 0.5 0.5 0.5 0.9 0.6 0.8 1.2 1.5 2.0 2.4 2.2 2.7 3.4 3.8 5.0 6.7 6.5 6.6 4.1 6.0 5.8 5.8 5.0 4.5 4.6 4.6 nan nan nan
Water_Equivalent
0.00 0.00 0.00 0.00 0.00 0.00 0.00 0.00 0.00 0.00 0.00 0.00 0.00 0.00 0.00 0.00 0.00 0.00 0.00 0.00 0.00 0.00 0.00 0.00 0.00 0.00 0.00 0.00 0.00 0.00 0.00 0.00 0.00 0.00 0.00 0.00 0.00 0.00 0.00 0.00 0.00 0.00 0.00 0.00
0.00 0.00 0.00 0.00 0.00 0.00 0.00 0.00 0.00 0.00 0.00 0.00 0.00 0.00 0.00 0.00 0.00 0.00 0.00 0.00 0.00 0.00 0.00 0.00 0.00 0.00 0.00 0.00 0.00 0.00 0.00 0.00 0.00 0.00 0.00 0.00 0.00 0.00 0.00 0.00 0.00 0.00 0.00 0.00
0.00 0.00 0.00 0.00 0.00 0.00 0.00 0.00 0.00 0.00 0.00 0.00 0.00 0.00 0.00 0.00 0.00 0.00 0.00 0.00 0.00 0.00 0.00 0.00 0.00 0.00 0.00 0.00 0.00 0.00 0.00 0.00 0.00 0.00 0.00 0.00 0.00 0.00 0.00 0.00 0.00 0.00 0.00 0.00
0.00 0.00 0.00 0.00 0.00 0.00 0.00 0.00 0.00 0.00 0.00 0.00 0.00 0.00 0.00 0.00 0.00 0.00 0.00 0.00 0.00 0.00 0.00 0.00 0.00 0.00 0.00 0.00 0.00 0.00 0.00 0.00 0.00 0.00 0.00 0.00 0.00 0.00 0.00 0.00 0.00 0.00 0.00 0.00
0.00 0.00 0.00 0.00 0.00 0.00 0.00 0.00 0.00 0.00 0.00 0.00 0.00 0.00 0.00 0.00 0.00 0.00 0.00 0.00 0.00 0.00 0.00 0.00 0.00 0.00 0.00 0.00 0.00 0.00 0.00 0.00 0.00 0.00 0.00 0.00 0.00 0.00 0.00 0.00 0.00 0.00 0.00 0.00
0.00 0.00 0.00 0.00 0.00 0.00 0.00 0.00 0.00 0.00 0.00 0.04 0.00 0.00 0.00 0.00 0.00 0.00 0.00 0.00 0.00 0.00 0.00 0.00 0.00 0.00 0.00 0.00 0.00 0.00 0.00 0.00 0.00 0.00 0.00 0.00 0.00 0.00 0.00 0.00 0.00 0.00 0.00 0.00
0.00 0.00 0.00 0.00 0.00 0.00 0.00 0.00 0.06 0.12 0.33 0.17 0.00 0.03 0.00 0.00 0.00 0.00 0.00 0.00 0.00 0.00 0.00 0.00 0.00 0.00 0.00 0.00 0.00 0.00 0.00 0.00 0.00 0.00 0.00 0.00 0.00 0.00 0.00 0.00 0.00 0.00 0.00 0.00
0.00 0.00 0.00 0.00 0.00 0.00 0.00 0.00 0.13 0.43 0.27 0.12 0.04 0.05 0.01 0.00 0.00 0.00 0.00 0.00 0.00 0.00 0.00 0.00 0.00 0.00 0.00 0.00 0.00 0.00 0.00 0.00 0.00 0.00 0.00 0.00 0.00 0.00 0.00 0.00 0.00 0.00 0.00 0.00
0.00 0.00 0.00 0.00 0.00 0.00 0.00 0.00 0.00 0.06 0.48 0.42 0.00 0.00 0.00 0.00 0.00 0.00 0.00 0.00 0.00 0.00 0.00 0.00 0.00 0.00 0.00 0.00 0.00 0.00 0.00 0.00 0.00 0.00 0.00 0.00 0.00 0.00 0.00 0.00 0.00 0.00 0.00 0.00
0.00 0.02 0.00 0.00 0.00 0.00 0.00 0.00 0.05 0.06 0.74 0.51 0.00 0.00 0.00 0.00 0.00 0.00 0.00 0.00 0.00 0.00 0.00 0.00 0.00 0.00 0.00 0.00 0.00 0.00 0.00 0.00 0.00 0.00 0.00 0.00 0.00 0.00 0.00 0.00 0.00 0.00 0.00 0.00
0.00 0.02 0.00 0.00 0.00 0.00 0.00 0.00 0.00 0.00 0.09 0.59 0.38 0.02 0.00 0.00 0.00 0.00 0.00 0.00 0.00 0.00 0.00 0.00 0.00 0.00 0.00 0.00 0.00 0.00 0.00 0.00 0.00 0.00 0.00 0.00 0.00 0.00 0.00 0.00 0.00 0.00 0.00 0.00
0.00 0.00 0.45 0.00 0.00 0.00 0.00 0.00 0.00 0.19 0.12 0.12 0.25 0.33 0.00 0.00 0.00 0.00 0.00 0.00 0.00 0.00 0.00 0.00 0.00 0.00 0.00 0.00 0.00 0.00 0.00 0.00 0.00 0.01 0.01 0.01 0.00 0.00 0.00 0.00 0.00 0.00 0.00 0.00
0.00 0.17 1.05 0.31 0.00 0.00 0.00 0.00 0.00 0.00 0.16 0.71 1.03 0.35 0.00 0.00 0.00 0.00 0.00 0.00 0.00 0.00 0.01 0.01 0.01 0.00 0.01 0.01 0.01 0.00 0.00 0.00 0.00 0.00 0.00 0.00 0.00 0.00 0.00 0.00 0.00 0.00 0.00 0.00
nan 0.08 0.25 0.36 0.04 0.00 0.07 0.02 0.03 0.09 0.88 0.41 0.38 0.14 0.00 0.00 0.00 0.00 0.00 0.00 0.00 0.00 0.00 0.00 0.00 0.00 0.00 0.00 0.00 0.00 0.00 0.00 0.00 0.00 0.00 0.00 0.00 0.00 0.00 0.00 0.00 0.00 0.00 0.00
0.00 0.69 0.03 0.02 0.01 0.03 0.06 0.04 0.00 0.00 0.01 0.24 0.03 0.05 0.00 0.00 0.02 0.00 0.00 0.00 0.00 0.00 0.00 0.00 0.00 0.00 0.00 0.00 0.00 0.00 0.00 0.00 0.00 0.00 0.00 0.00 0.00 0.00 0.01 0.04 0.06 0.05 0.04 0.00
0.01 0.76 0.14 0.58 0.02 0.02 0.11 0.02 0.03 0.03 0.03 0.02 0.00 0.00 0.00 0.00 0.00 0.00 0.00 0.00 0.00 0.00 0.00 0.00 0.00 0.00 0.00 0.00 0.00 0.00 0.00 0.00 0.00 0.00 0.00 0.00 0.10 0.14 0.16 0.14 0.10 0.07 0.06 0.05
0.08 0.50 1.32 1.74 0.14 0.11 0.88 0.15 0.00 0.00 0.00 0.00 0.05 0.08 0.14 0.06 0.02 0.03 0.02 0.01 0.01 0.00 0.00 0.00 0.00 0.00 0.00 0.00 0.00 0.00 0.00 0.03 0.13 0.18 0.27 0.24 0.20 0.18 0.14 0.11 0.09 0.07 0.07 0.07
0.12 0.68 1.25 2.12 1.22 2.43 0.31 0.00 0.00 0.02 0.06 0.10 0.18 0.29 0.15 0.04 0.01 0.00 0.01 0.00 0.00 0.00 0.00 0.00 0.00 0.00 0.00 0.00 0.00 0.00 0.04 0.09 0.12 0.22 0.32 0.23 0.14 0.26 0.14 0.12 0.12 0.08 0.07 0.08
0.01 0.01 1.12 2.17 1.99 0.14 0.01 0.00 0.00 0.02 0.03 0.08 0.14 0.08 0.03 0.00 0.00 0.00 0.00 0.00 0.00 0.00 0.00 0.00 0.00 0.00 0.00 0.00 0.00 0.05 0.06 0.06 0.07 0.08 0.13 0.13 0.20 0.30 0.15 0.35 0.15 0.11 0.20 0.14
0.00 0.00 0.08 1.32 2.17 1.60 0.03 0.00 0.00 0.00 0.28 0.24 0.45 0.27 0.15 0.03 0.08 0.02 0.00 0.00 0.00 0.00 0.00 0.00 0.00 0.00 0.00 0.00 0.00 0.07 0.07 0.10 0.09 0.07 0.07 0.09 0.19 0.43 0.33 0.18 0.28 0.33 0.31 0.29
0.73 1.25 1.50 1.68 2.09 0.86 0.21 0.11 0.01 0.72 0.65 0.29 0.20 0.19 0.12 0.14 0.04 0.01 0.00 0.00 0.00 0.01 0.01 0.01 0.00 0.00 0.00 0.03 0.08 0.07 0.07 0.10 0.12 0.14 0.14 0.17 0.19 0.45 0.28 0.32 0.27 0.39 0.43 0.22
0.16 0.97 2.11 1.42 1.45 1.65 0.03 0.02 0.13 0.15 0.06 0.12 0.04 0.01 0.02 0.01 0.00 0.00 0.00 0.00 0.00 0.00 0.00 0.00 0.00 0.00 0.00 0.09 0.12 0.12 0.08 0.10 0.17 0.22 0.23 0.29 0.49 0.45 0.46 0.84 0.50 0.69 0.61 0.59
0.58 0.20 0.92 0.43 0.58 0.02 0.01 0.06 0.01 0.02 0.18 0.08 0.03 0.02 0.01 0.01 0.00 0.00 0.00 0.00 0.00 0.00 0.00 0.00 0.17 0.15 0.00 0.19 0.21 0.26 0.16 0.19 0.26 0.52 0.73 0.72 0.63 0.63 0.64 0.94 0.60 0.84 0.70 0.84
0.07 0.00 0.23 0.29 0.01 0.01 0.00 0.00 0.00 0.01 0.02 0.01 0.02 0.02 0.01 0.01 0.00 0.00 0.00 0.01 0.00 0.11 0.16 0.18 0.25 0.28 0.26 0.24 0.29 0.33 0.28 0.30 1.02 1.02 0.53 0.41 0.54 0.43 0.53 0.75 0.87 1.25 0.96 0.76
0.08 0.08 0.16 0.20 0.00 0.00 0.00 0.00 0.00 0.00 0.00 0.00 0.00 0.00 0.00 0.00 0.00 0.00 0.12 0.14 0.09 0.12 0.14 0.21 0.26 0.26 0.24 0.20 0.23 0.36 0.33 0.41 0.64 0.68 0.36 0.52 0.76 0.86 0.51 0.47 0.79 0.67 0.44 0.96
0.00 0.00 0.02 0.25 0.00 0.00 0.00 0.00 0.00 0.00 0.00 0.04 0.04 0.05 0.06 0.07 0.06 0.07 0.11 0.08 0.10 0.14 0.16 0.20 0.23 0.20 0.22 0.28 0.32 0.45 0.62 0.61 0.63 0.37 0.56 0.56 0.56 0.49 0.44 0.45 0.43 nan nan nan
SL_Ratio
nan nan nan nan nan nan nan nan nan nan nan nan nan nan nan nan nan nan nan nan nan nan nan nan nan nan nan nan nan nan nan nan nan nan nan nan nan nan nan nan nan nan nan nan
nan nan nan nan nan nan nan nan nan nan nan nan nan nan nan nan nan nan nan nan nan nan nan nan nan nan nan nan nan nan nan nan nan nan nan nan nan nan nan nan nan nan nan nan
nan nan nan nan nan nan nan nan nan nan nan nan nan nan nan nan nan nan nan nan nan nan nan nan nan nan nan nan nan nan nan nan nan nan nan nan nan nan nan nan nan nan nan nan
nan nan nan nan nan nan nan nan nan nan nan nan nan nan nan nan nan nan nan nan nan nan nan nan nan nan nan nan nan nan nan nan nan nan nan nan nan nan nan nan nan nan nan nan
nan nan nan nan nan nan nan nan nan nan nan nan nan nan nan nan nan nan nan nan nan nan nan nan nan nan nan nan nan nan nan nan nan nan nan nan nan nan nan nan nan nan nan nan
nan nan nan nan nan nan nan nan nan nan nan 6.0 nan nan nan nan nan nan nan nan nan nan nan nan nan nan nan nan nan nan nan nan nan nan nan nan nan nan nan nan nan nan nan nan
nan nan nan nan nan nan nan nan 5.9 6.0 6.1 5.9 nan 5.8 nan nan nan nan nan nan nan nan nan nan nan nan nan nan nan nan nan nan nan nan nan nan nan nan nan nan nan nan nan nan
nan nan nan nan nan nan nan nan 5.7 7.3 6.4 5.5 6.2 5.9 3.8 nan nan nan nan nan nan nan nan nan nan nan nan nan nan nan nan nan nan nan nan nan nan nan nan nan nan nan nan nan
3.6 4.2 nan nan nan nan nan nan nan 6.0 6.9 6.2 nan nan nan nan nan nan nan nan nan nan nan nan nan nan nan nan nan nan nan nan nan nan nan nan nan nan nan nan nan nan nan nan
nan 5.5 nan nan nan nan nan nan 6.0 6.0 7.9 8.8 nan nan nan nan nan nan nan nan nan nan nan nan nan nan nan nan nan nan nan nan nan nan nan nan nan nan nan nan nan nan nan nan
nan 5.3 nan nan nan nan nan nan nan nan 5.9 7.5 7.4 5.9 nan nan nan nan nan nan nan nan nan nan nan nan nan nan 5.0 5.0 5.0 nan nan nan nan nan nan nan nan 5.0 5.0 5.0 nan nan
nan 4.4 5.6 nan nan nan nan nan nan 5.5 6.4 6.0 5.3 6.9 nan nan nan nan nan nan nan nan nan nan nan nan nan nan 5.0 5.0 5.0 5.0 5.0 5.0 5.3 5.3 5.4 5.4 5.9 6.3 6.0 6.7 5.0 nan
nan 4.5 6.5 6.1 5.0 nan nan nan nan 5.0 4.9 6.7 8.0 7.1 nan nan 5.0 4.4 5.0 nan nan nan 4.4 4.5 4.7 5.0 4.5 4.7 4.5 4.6 5.0 5.0 5.0 5.0 6.3 5.0 6.3 5.0 5.0 nan nan 5.0 5.0 nan
nan 4.2 4.9 6.5 5.5 nan 5.7 5.2 5.1 5.1 7.2 6.3 6.0 5.9 4.3 nan 5.8 5.0 nan nan nan nan nan nan nan nan nan nan nan nan nan nan nan nan nan nan 5.0 nan nan nan nan nan nan nan
nan 5.1 4.0 4.1 4.4 4.8 5.7 5.8 5.0 5.0 6.0 8.2 5.3 5.3 5.0 nan 5.2 5.0 nan nan nan nan nan nan nan nan nan nan nan nan nan nan nan nan nan nan nan nan 7.1 7.4 7.5 7.5 7.6 nan
4.9 6.1 5.0 6.1 3.3 3.2 4.9 4.1 3.8 4.2 4.7 4.9 nan nan nan nan nan 5.0 nan nan nan nan nan nan nan nan nan nan nan nan nan nan 5.0 7.5 8.0 7.5 7.7 8.2 8.2 8.0 8.0 7.8 7.8 7.7
4.8 4.9 6.5 8.0 4.7 5.0 8.0 5.6 nan nan nan nan 6.4 6.1 5.3 6.1 6.0 5.5 5.5 5.0 5.0 5.0 nan nan nan nan nan nan nan nan nan 6.5 8.1 9.0 9.2 9.3 8.8 9.9 9.8 8.9 8.8 8.7 8.4 8.0
5.6 5.6 5.9 8.4 7.7 9.9 6.3 nan nan 5.5 6.9 6.5 6.2 6.6 6.0 6.4 5.6 4.6 4.8 nan nan nan nan nan nan nan nan nan nan nan 6.6 7.6 8.4 9.2 9.7 9.9 9.9 9.9 9.9 9.9 9.8 9.1 8.6 8.8
4.8 4.8 9.0 8.8 8.9 6.0 4.9 nan 6.9 6.9 7.0 6.6 6.6 6.1 5.6 nan nan nan nan nan nan nan nan nan nan nan nan nan nan 8.0 8.3 8.3 8.5 8.9 9.5 9.7 9.9 9.9 10.1 10.1 10.6 10.8 10.2 9.4
nan nan 6.8 9.2 9.2 9.6 6.7 6.3 nan 5.0 8.4 6.7 6.7 6.8 6.4 5.6 8.6 5.8 nan nan nan nan nan nan nan nan nan nan nan 8.6 9.2 9.7 10.0 9.4 9.5 10.0 10.1 10.1 10.3 10.5 10.3 10.1 10.0 10.0
8.0 8.2 8.6 8.2 8.6 6.9 4.2 4.4 3.0 9.2 8.1 5.4 6.0 6.4 6.5 6.8 5.7 5.1 5.0 nan nan 5.3 5.7 5.6 5.5 6.3 nan 8.0 8.7 9.8 9.9 9.9 9.9 10.0 10.3 10.3 10.4 10.1 10.3 10.2 10.1 10.0 10.1 10.3
8.2 9.0 9.2 9.2 9.2 9.6 5.1 5.5 9.6 7.6 5.2 5.1 5.4 4.8 5.4 5.0 5.0 nan nan nan nan nan nan 10.0 6.7 5.6 5.0 9.0 9.5 9.5 9.8 10.0 10.1 10.2 10.4 10.4 10.3 10.2 10.2 10.0 10.2 10.0 10.0 10.0
8.7 7.8 9.4 8.4 7.9 4.4 4.7 4.9 3.5 4.7 5.4 5.2 5.4 5.3 5.0 5.3 nan nan nan nan nan nan nan 5.0 9.0 9.3 9.1 9.2 9.6 9.8 10.6 10.5 10.4 10.1 10.0 10.0 10.2 10.1 10.1 9.9 10.1 10.0 10.0 9.9
6.4 5.8 6.5 7.5 5.3 5.3 4.7 nan nan 4.3 5.1 4.9 5.4 5.8 5.4 5.5 5.7 10.0 6.7 7.2 5.0 8.9 8.8 8.9 9.1 9.6 9.4 9.4 9.8 9.9 10.2 10.3 9.8 9.9 10.2 10.6 10.4 9.6 10.5 10.1 9.9 9.7 9.9 10.0
5.2 4.3 5.6 6.8 4.5 nan nan nan nan nan 5.0 5.0 4.3 5.0 5.4 5.6 5.5 5.0 7.2 7.4 7.5 9.6 9.7 9.7 10.0 9.9 9.9 10.0 10.8 10.4 11.1 11.1 10.6 10.4 10.9 10.6 10.3 10.1 10.5 10.4 10.2 10.2 10.2 10.0
nan nan 8.2 8.6 nan nan nan nan nan nan 5.0 6.3 6.5 7.0 7.3 7.1 7.2 7.3 7.6 7.4 7.7 8.2 9.2 9.9 10.4 10.9 12.2 12.1 11.9 11.2 10.8 10.6 10.4 11.1 10.6 10.3 10.2 10.2 10.2 10.4 10.7 nan nan nan